Location: Hylvaty SDH
(49.9612°N, 16.4057°E)
Time: 01:00:38
(UTC+02:00)

Explorer 7 - All Passes

Search period start: 12 August 2020 00:00
Search period end: 22 August 2020 00:00
Orbit: 485 x 679 km, 50.3° (Epoch: 11 August)

Date Brightness Start Highest point End Pass type
(mag) Time Alt. Az. Time Alt. Az. Time Alt. Az.
12 Aug - 00:10:28 10° W 00:14:16 75° SSW 00:18:00 10° ESE visible
12 Aug - 01:51:14 10° W 01:54:21 25° SW 01:57:29 10° SSE night (unlit)
12 Aug - 19:15:08 10° S 19:18:07 20° SE 19:21:00 10° E daylight
12 Aug - 20:54:12 10° WSW 20:58:08 62° SSE 21:01:55 10° E visible
12 Aug - 22:34:42 10° W 22:38:35 83° N 22:42:21 10° E visible
13 Aug - 00:15:16 10° W 00:19:00 59° SSW 00:22:42 10° ESE visible
13 Aug - 01:56:24 10° W 01:58:56 17° SW 02:01:28 10° S night (unlit)
13 Aug - 19:19:13 10° SSW 19:22:43 28° SSE 19:26:05 10° E daylight
13 Aug - 20:58:54 10° WSW 21:02:53 77° SSE 21:06:42 10° E visible
13 Aug - 22:39:31 10° W 22:43:23 87° N 22:47:10 10° E visible
14 Aug - 00:20:06 10° W 00:23:43 44° SSW 00:27:18 10° SE visible
14 Aug - 02:02:12 10° WSW 02:03:27 11° SW 02:04:41 10° SSW night (unlit)
14 Aug - 17:47:13 10° SE 17:47:37 10° SE 17:48:01 10° SE daylight
14 Aug - 19:23:32 10° SW 19:27:22 39° SSE 19:31:01 10° E daylight
14 Aug - 21:03:41 10° W 21:07:40 89° SSE 21:11:30 10° E visible
14 Aug - 22:44:19 10° W 22:48:11 85° SSW 22:51:57 10° ESE visible
15 Aug - 00:24:58 10° W 00:28:23 32° SSW 00:31:44 10° SSE visible
15 Aug - 17:49:36 10° S 17:52:08 16° SE 17:54:36 10° ESE daylight
15 Aug - 19:28:04 10° SW 19:32:03 52° SSE 19:35:51 10° E daylight
15 Aug - 21:08:29 10° W 21:12:28 85° N 21:16:18 10° E visible
15 Aug - 22:49:06 10° W 22:52:58 71° SSW 22:56:42 10° ESE visible
16 Aug - 00:30:00 10° W 00:33:00 22° SW 00:35:57 10° SSE visible
16 Aug - 17:53:23 10° SSW 17:56:41 23° SE 17:59:54 10° E daylight
16 Aug - 19:32:42 10° WSW 19:36:48 68° SSE 19:40:40 10° E daylight
16 Aug - 21:13:18 10° W 21:17:16 84° N 21:21:06 10° E visible
16 Aug - 22:53:54 10° W 22:57:41 55° SSW 23:01:22 10° SE visible
17 Aug - 00:35:16 10° WSW 00:37:32 15° SW 00:39:48 10° S visible
17 Aug - 17:57:33 10° SSW 18:01:19 32° SSE 18:04:54 10° E daylight
17 Aug - 19:37:26 10° WSW 19:41:33 82° SSE 19:45:27 10° E daylight
17 Aug - 21:18:06 10° W 21:22:05 89° N 21:25:54 10° E visible
17 Aug - 22:58:45 10° W 23:02:23 40° SSW 23:05:55 10° SE visible
18 Aug - 16:24:22 10° SSE 16:26:09 12° SE 16:27:54 10° ESE daylight
18 Aug - 18:01:57 10° SW 18:05:59 44° SSE 18:09:48 10° E daylight
18 Aug - 19:42:13 10° W 19:46:20 89° NNW 19:50:14 10° E daylight
18 Aug - 21:22:54 10° W 21:26:53 81° S 21:30:40 10° ESE visible
18 Aug - 23:03:39 10° W 23:07:01 29° SSW 23:10:18 10° SSE visible
19 Aug - 16:27:40 10° S 16:30:41 18° SE 16:33:35 10° E daylight
19 Aug - 18:06:31 10° WSW 18:10:41 58° SSE 18:14:36 10° E daylight
19 Aug - 19:47:02 10° W 19:51:09 84° N 19:55:02 10° E daylight
19 Aug - 21:27:41 10° W 21:31:38 67° SSW 21:35:24 10° ESE visible
19 Aug - 23:08:42 10° W 23:11:36 20° SW 23:14:26 10° SSE visible
20 Aug - 16:31:37 10° SSW 16:35:15 26° SE 16:38:44 10° E daylight
20 Aug - 18:11:11 10° WSW 18:15:25 73° SSE 18:19:24 10° E daylight
20 Aug - 19:51:51 10° W 19:55:57 85° N 19:59:50 10° E daylight
20 Aug - 21:32:30 10° W 21:36:21 51° SSW 21:40:02 10° SE visible
20 Aug - 23:14:07 10° WSW 23:16:07 14° SW 23:18:05 10° S visible
21 Aug - 16:35:52 10° SW 16:39:53 36° SSE 16:43:41 10° E daylight
21 Aug - 18:15:56 10° WSW 18:20:11 85° S 18:24:12 10° E daylight
21 Aug - 19:56:39 10° W 20:00:45 89° S 20:04:38 10° E daylight
21 Aug - 21:37:21 10° W 21:41:01 37° SSW 21:44:33 10° SE visible
